Location: ActonStarParty
(42.4766°N, 71.4538°W)
Time: 13:54:08
(UTC-04:00)

Cosmos 2360 Rocket - Pass Details

Date: 19 April 2018
Orbit: 833 x 846 km, 71.0° (Epoch: 20 September)

Event Time Altitude Azimuth Distance (km) Brightness Sun altitude
Rises 20:04:18 0° 212° (SSW) 3,379 5.5 -6.4°
Reaches altitude 10° 20:06:45 10° 215° (SW) 2,446 4.8 -6.8°
Maximum altitude 20:12:19 64° 297° (WNW) 924 2.8 -7.8°
Drops below altitude 10° 20:17:54 10° 19° (NNE) 2,453 4.7 -8.7°
Sets 20:20:23 0° 22° (NNE) 3,390 5.4 -9.1°
